Weather History for LIMH - January, 2014

Change the Weather History Date:

Monday, January 6, 2014

  Actual Average Record
Temperature  
Mean Temperature 23 °F -  
Max Temperature 29 °F 17 °F 39 °F (1999)
Min Temperature 17 °F 6 °F -5 °F (1997)
Degree Days  
Heating Degree Days 42    
Moisture  
Dew Point 16 °F    
Average Humidity 69    
Maximum Humidity 93    
Minimum Humidity 9    
Precipitation  
Precipitation 0.00 in - - ()
Sea Level Pressure  
Sea Level Pressure 30.11 in    
Wind  
Wind Speed 16 mph ()    
Max Wind Speed 31 mph    
Max Gust Speed 37 mph    
Visibility 6.8 miles    
Events      
Averages and records for this station are not official NWS values.
T = Trace of Precipitation, MM = Missing Value Source: Averaged Metar Reports

Daily Weather History Graph

Daily Weather History Graph

Search for Another Location

Airport or City:

Trip Planner

Search our weather history database for the weather conditions in past years. The results will help you decide how hot, cold, wet, or windy it might be!

Date:

Astronomy

Jan. 06, 2014 Rise Set
Actual Time 8:10 AM CET 4:59 PM CET
Civil Twilight 7:36 AM CET 5:33 PM CET
Nautical Twilight 6:58 AM CET 6:11 PM CET
Astronomical Twilight 6:22 AM CET 6:47 PM CET
Moon 10:57 AM CET (1/6) 11:37 PM CET (1/6)
Length of Visible Light 9h 57m
Length of Day
8h 49m
Waxing Crescent, 32% of the Moon is Illuminated
Jan 6
Waxing Crescent
Jan 8
First Quarter
Jan 16
Full
Jan 24
Last Quarter
Jan 30
New

Hourly Weather History & Observations

Time (CET) Temp. Windchill Dew Point Humidity Pressure Visibility Wind Dir Wind Speed Gust Speed Precip Events Conditions
12:00 AM 19 °F - -15 °F 9%  in 6 mi NE 31.1 mph - -   Partly Cloudy
12:55 AM 19.4 °F 1.4 °F -7.6 °F 30% 29.95 in 6.2 mi ENE 26.5 mph - N/A   Scattered Clouds
1:00 AM 19 °F - -7 °F 17%  in 6 mi ENE 26.5 mph - -   Partly Cloudy
1:55 AM 19.4 °F 1.8 °F 3.2 °F 49% 29.98 in 6.2 mi ENE 25.3 mph - N/A   Partly Cloudy
2:00 AM 19 °F - 4 °F 37%  in 6 mi ENE 25.3 mph - -   Scattered Clouds
2:55 AM 19.4 °F 4.1 °F 10.4 °F 68% 30.04 in 6.2 mi ENE 18.4 mph - N/A   Partly Cloudy
3:00 AM 19 °F - 11 °F 59%  in 6 mi ENE 18.4 mph - -   Scattered Clouds
3:55 AM 21.2 °F 8.3 °F 14.0 °F 74% 30.06 in 6.2 mi ENE 13.8 mph - N/A   Partly Cloudy
4:00 AM 20 °F - 14 °F 70%  in 6 mi ENE 13.8 mph - -   Scattered Clouds
4:55 AM 23.0 °F 10.1 °F 15.8 °F 74% 30.06 in 6.2 mi ENE 15.0 mph - N/A   Partly Cloudy
5:00 AM 23 °F - 16 °F 65%  in 6 mi ENE 15.0 mph - -   Scattered Clouds
5:55 AM 23.0 °F 9.6 °F 17.6 °F 80% 30.09 in - ENE 16.1 mph - N/A   Clear
6:00 AM 22 °F - 17 °F 72%  in 6 mi ENE 16.1 mph - -  
6:55 AM 24.8 °F 12.4 °F 19.4 °F 80% 30.12 in - ENE 15.0 mph - N/A   Clear
7:00 AM 24 °F - 19 °F 73%  in 6 mi ENE 15.0 mph - -  
7:55 AM 23.0 °F 10.6 °F 17.6 °F 80% 30.12 in - ENE 13.8 mph - N/A   Clear
8:00 AM 23 °F - 17 °F 70%  in 19 mi ENE 13.8 mph - -   Clear
8:55 AM 23.0 °F 11.7 °F 17.6 °F 80% 30.12 in - East 11.5 mph - N/A   Clear
9:55 AM 23.0 °F 17.0 °F 15.8 °F 74% 30.12 in 6.2 mi SW 4.6 mph - N/A   Scattered Clouds
10:00 AM 24 °F - 17 °F 64%  in 37 mi SW 4.6 mph - -   Mostly Cloudy
10:55 AM 26.6 °F - 15.8 °F 64% 30.15 in 6.2 mi Variable 1.2 mph - N/A   Mostly Cloudy
11:00 AM 27 °F - 15 °F 48%  in 37 mi 1.2 mph - -   Overcast
11:55 AM 28.4 °F 24.6 °F 15.8 °F 59% 30.12 in 6.2 mi Variable 3.5 mph - N/A   Mostly Cloudy
12:00 PM 29 °F - 15 °F 42%  in 31 mi 3.5 mph - -   Overcast
12:55 PM 28.4 °F 18.5 °F 19.4 °F 69% 30.12 in 6.2 mi SW 11.5 mph - N/A   Mostly Cloudy
1:00 PM 28 °F - 19 °F 59%  in 31 mi SW 11.5 mph - -   Overcast
1:55 PM 24.8 °F 14.6 °F 19.4 °F 80% 30.12 in 6.2 mi SW 10.4 mph - N/A   Mostly Cloudy
2:00 PM 26 °F - 20 °F 71%  in 47 mi SW 10.4 mph - -   Overcast
2:55 PM 24.8 °F 14.6 °F 19.4 °F 80% 30.12 in 6.2 mi SW 10.4 mph - N/A   Mostly Cloudy
3:00 PM 25 °F - 20 °F 73%  in 37 mi SW 10.4 mph - -   Mostly Cloudy
3:55 PM 24.8 °F 16.1 °F 21.2 °F 86% 30.12 in 6.2 mi SW 8.1 mph - N/A   Scattered Clouds
4:00 PM 25 °F - 21 °F 77%  in 37 mi SW 8.1 mph - -   Partly Cloudy
4:55 PM 24.8 °F 14.0 °F 21.2 °F 86% 30.15 in 6.2 mi SW 11.5 mph 23.0 mph N/A   Mostly Cloudy
5:00 PM 24 °F - 21 °F 85%  in 37 mi SW 11.5 mph - -   Overcast
5:55 PM 24.8 °F 14.0 °F 23.0 °F 93% 30.15 in 6.2 mi SW 11.5 mph - N/A   Mostly Cloudy
6:00 PM 24 °F - 23 °F 92%  in 16 mi SW 11.5 mph - -   Overcast
6:55 PM 24.8 °F 9.3 °F 19.4 °F 80% 30.12 in 6.2 mi SSW 24.2 mph 36.8 mph N/A   Scattered Clouds
7:00 PM 25 °F - 20 °F 74%  in 6 mi SSW 24.2 mph - -   Partly Cloudy
7:55 PM 24.8 °F 9.3 °F 19.4 °F 80% 30.15 in 6.2 mi SSW 24.2 mph - N/A   Mostly Cloudy
8:00 PM 24 °F - 19 °F 74%  in 6 mi SSW 24.2 mph - -   Mostly Cloudy
8:55 PM 24.8 °F 9.3 °F 19.4 °F 80% 30.18 in 6.2 mi SSW 24.2 mph - N/A   Mostly Cloudy
9:00 PM 24 °F - 19 °F 74%  in 6 mi SSW 24.2 mph - -   Mostly Cloudy
9:55 PM 24.8 °F 11.5 °F 17.6 °F 74% 30.18 in 6.2 mi SSW 17.3 mph - N/A   Scattered Clouds
10:00 PM 25 °F - 18 °F 66%  in 6 mi SSW 17.3 mph - -   Partly Cloudy
10:55 PM 24.8 °F 14.6 °F 19.4 °F 80% 30.18 in 6.2 mi SW 10.4 mph - N/A   Partly Cloudy
11:00 PM 24 °F - 19 °F 73%  in 6 mi SW 10.4 mph - -   Scattered Clouds
11:55 PM 23.0 °F 12.4 °F 21.2 °F 93% 30.18 in - SW 10.4 mph - N/A   Clear